Location: Peebles
(55.6412°N, 3.1714°W)
Time: 12:51:47
(UTC+00:00)

CUTE-I - Pass Details

Date: 19 December 2023
Orbit: 807 x 823 km, 98.7° (Epoch: 24 February)

Event Time Altitude Azimuth Distance (km) Brightness Sun altitude
Rises 06:41:46 0° 17° (NNE) 3,372 ? -14.8°
Reaches altitude 10° 06:44:09 10° 19° (NNE) 2,436 ? -14.5°
Maximum altitude 06:49:33 72° 105° (ESE) 869 ? -13.8°
Drops below altitude 10° 06:54:54 10° 189° (S) 2,419 ? -13.1°
Sets 06:57:15 0° 192° (SSW) 3,347 ? -12.8°
